Weather History for Winner, SD

Change the Weather History Date:

Sunday, January 12, 2014

  Actual Average Record
Temperature  
Mean Temperature 44 °F 25 °F  
Max Temperature 52 °F 36 °F 52 °F (2014)
Min Temperature 35 °F 14 °F -10 °F (2011)
Degree Days  
Heating Degree Days 21 40  
Month to date heating degree days 515 485  
Since 1 July heating degree days 3356 3191  
Cooling Degree Days 0 0  
Month to date cooling degree days 0 0  
Year to date cooling degree days 0 0  
Moisture  
Dew Point 29 °F    
Average Humidity 59    
Maximum Humidity 76    
Minimum Humidity 42    
Precipitation  
Precipitation 0.00 in 0.00 in 0.00 in (2014)
Month to date precipitation 0.02 0.08  
Year to date precipitation 0.02 0.08  
Sea Level Pressure  
Sea Level Pressure 29.53 in    
Wind  
Wind Speed 14 mph (West)    
Max Wind Speed 26 mph    
Max Gust Speed 38 mph    
Visibility 10 miles    
Events      
T = Trace of Precipitation, MM = Missing Value Source: NWS Daily Summary

Daily Weather History Graph

Daily Weather History Graph

Search for Another Location

Airport:

Trip Planner

Search our weather history database for the weather conditions in past years. The results will help you decide how hot, cold, wet, or windy it might be!

Date:

Astronomy

Jan. 12, 2014 Rise Set
Actual Time 8:10 AM CST 5:25 PM CST
Civil Twilight 7:38 AM CST 5:57 PM CST
Nautical Twilight 7:02 AM CST 6:32 PM CST
Astronomical Twilight 6:28 AM CST 7:07 PM CST
Moon 2:55 PM CST (1/12) 5:09 AM CST (1/12)
Length of Visible Light 10h 19m
Length of Day
9h 15m
Waxing Gibbous, 90% of the Moon is Illuminated
Jan 12
Waxing Gibbous
Jan 15
Full
Jan 23
Last Quarter
Jan 30
New
Feb 6
First Quarter

Hourly Weather History & Observations

Time (CST) Temp. Windchill Dew Point Humidity Pressure Visibility Wind Dir Wind Speed Gust Speed Precip Events Conditions
12:53 AM 48.0 °F - 28.9 °F 48% 29.35 in 10.0 mi SSW 20.7 mph - N/A   Clear
1:53 AM 50.0 °F - 30.0 °F 46% 29.33 in 10.0 mi SW 16.1 mph 23.0 mph N/A   Clear
2:53 AM 51.1 °F - 30.9 °F 46% 29.34 in 10.0 mi West 19.6 mph 28.8 mph N/A   Clear
3:53 AM 48.0 °F - 33.1 °F 56% 29.39 in 10.0 mi NW 11.5 mph 25.3 mph N/A   Mostly Cloudy
4:53 AM 42.1 °F 36.6 °F 32.0 °F 67% 29.41 in 10.0 mi West 9.2 mph - N/A   Clear
5:53 AM 43.0 °F 36.4 °F 32.0 °F 65% 29.45 in 10.0 mi West 12.7 mph - N/A   Clear
6:53 AM 41.0 °F 33.9 °F 30.9 °F 67% 29.48 in 10.0 mi WNW 12.7 mph - N/A   Clear
7:53 AM 37.9 °F 29.2 °F 30.0 °F 73% 29.49 in 10.0 mi West 15.0 mph - N/A   Partly Cloudy
8:53 AM 37.9 °F 32.1 °F 30.0 °F 73% 29.49 in 10.0 mi WSW 8.1 mph - N/A   Clear
9:53 AM 39.0 °F 34.0 °F 30.9 °F 73% 29.52 in 10.0 mi WSW 6.9 mph - N/A   Clear
10:53 AM 42.1 °F 37.1 °F 30.9 °F 65% 29.53 in 10.0 mi West 8.1 mph - N/A   Clear
11:53 AM 45.0 °F 39.3 °F 30.9 °F 58% 29.50 in 10.0 mi West 11.5 mph - N/A   Clear
12:53 PM 48.0 °F - 28.0 °F 46% 29.48 in 10.0 mi WNW 15.0 mph - N/A   Clear
1:53 PM 48.0 °F - 28.0 °F 46% 29.47 in 10.0 mi WNW 12.7 mph - N/A   Clear
2:53 PM 50.0 °F - 28.0 °F 43% 29.49 in 10.0 mi WNW 12.7 mph - N/A   Clear
3:53 PM 46.9 °F - 28.0 °F 48% 29.55 in 10.0 mi WNW 16.1 mph - N/A   Clear
4:53 PM 45.0 °F 37.9 °F 27.0 °F 49% 29.59 in 10.0 mi West 16.1 mph - N/A   Clear
5:53 PM 41.0 °F 33.9 °F 27.0 °F 57% 29.64 in 10.0 mi West 12.7 mph - N/A   Overcast
6:53 PM 41.0 °F 32.8 °F 26.1 °F 55% 29.67 in 10.0 mi WNW 16.1 mph - N/A   Clear
7:53 PM 39.0 °F 30.6 °F 26.1 °F 60% 29.69 in 10.0 mi WNW 15.0 mph - N/A   Clear
8:53 PM 39.9 °F 30.8 °F 26.1 °F 58% 29.71 in 10.0 mi WNW 18.4 mph - N/A   Clear
9:53 PM 37.0 °F 28.1 °F 26.1 °F 65% 29.74 in 10.0 mi West 15.0 mph - N/A   Clear
10:53 PM 36.0 °F 26.7 °F 27.0 °F 70% 29.75 in 10.0 mi WNW 15.0 mph - N/A   Scattered Clouds
11:53 PM 36.0 °F 25.0 °F 28.0 °F 73% 29.77 in 10.0 mi WNW 20.7 mph 27.6 mph N/A   Clear